Ardmore, OK

10:25 PM CDT on April 21, 2018 (GMT -0500)
Ardmore Municipal

Weather History for KADM - January, 2013

Change the Weather History Date:

Wednesday, January 2, 2013

  Actual Average Record
Temperature  
Mean Temperature 34 °F -  
Max Temperature 42 °F 51 °F 77 °F (2004)
Min Temperature 26 °F 32 °F 10 °F (2018)
Degree Days  
Heating Degree Days 31    
Moisture  
Dew Point 29 °F    
Average Humidity 89    
Maximum Humidity 100    
Minimum Humidity 61    
Precipitation  
Precipitation 0.00 in - - ()
Sea Level Pressure  
Sea Level Pressure 30.30 in    
Wind  
Wind Speed 8 mph (NNW)    
Max Wind Speed 9 mph    
Max Gust Speed -    
Visibility 9 miles    
Events      
Averages and records for this station are not official NWS values.
T = Trace of Precipitation, MM = Missing Value Source: NWS Daily Summary

Daily Weather History Graph

Daily Weather History Graph

Search for Another Location

Airport or City:

Astronomy

Jan. 02, 2013 Rise Set
Actual Time 7:34 AM CST 5:30 PM CST
Civil Twilight 7:06 AM CST 5:57 PM CST
Nautical Twilight 6:35 AM CST 6:29 PM CST
Astronomical Twilight 6:05 AM CST 6:59 PM CST
Moon 10:48 PM CST (1/2) 10:31 AM CST (1/2)
Length of Visible Light 10h 51m
Length of Day
9h 55m
Waning Gibbous, 75% of the Moon is Illuminated
Jan 2
Waning Gibbous
Jan 4
Last Quarter
Jan 11
New
Jan 18
First Quarter
Jan 26
Full

Hourly Weather History & Observations

Time (CST) Temp. Windchill Dew Point Humidity Pressure Visibility Wind Dir Wind Speed Gust Speed Precip Events Conditions
12:15 AM 32.0 °F 24.2 °F 30.2 °F 93% 30.30 in 7.0 mi NNW 9.2 mph - N/A   Unknown
12:35 AM 32.0 °F 24.2 °F 28.4 °F 87% 30.30 in 7.0 mi NNW 9.2 mph - N/A   Unknown
12:55 AM 32.0 °F 24.8 °F 28.4 °F 87% 30.30 in 7.0 mi NNW 8.1 mph - N/A   Unknown
1:15 AM 32.0 °F 24.8 °F 28.4 °F 87% 30.30 in 7.0 mi NNW 8.1 mph - N/A   Unknown
1:35 AM 32.0 °F 24.2 °F 28.4 °F 87% 30.29 in 7.0 mi NNW 9.2 mph - N/A   Unknown
1:55 AM 32.0 °F 24.2 °F 28.4 °F 87% 30.29 in 7.0 mi NNW 9.2 mph - N/A   Unknown
2:15 AM 32.0 °F 26.4 °F 30.2 °F 93% 30.30 in 7.0 mi NNW 5.8 mph - N/A   Unknown
2:35 AM 32.0 °F 24.8 °F 28.4 °F 87% 30.31 in 7.0 mi NNW 8.1 mph - N/A   Unknown
2:55 AM 32.0 °F 25.6 °F 30.2 °F 93% 30.30 in 7.0 mi NNW 6.9 mph - N/A   Unknown
3:15 AM 32.0 °F 24.8 °F 30.2 °F 93% 30.30 in 10.0 mi NNW 8.1 mph - N/A   Unknown
3:35 AM 32.0 °F 25.6 °F 30.2 °F 93% 30.30 in 10.0 mi NNW 6.9 mph - N/A   Unknown
3:55 AM 32.0 °F 25.6 °F 30.2 °F 93% 30.30 in 10.0 mi NNW 6.9 mph - N/A   Unknown
4:15 AM 32.0 °F 27.5 °F 30.2 °F 93% 30.29 in 10.0 mi NNW 4.6 mph - N/A   Unknown
4:35 AM 32.0 °F 24.8 °F 30.2 °F 93% 30.28 in 10.0 mi NNW 8.1 mph - N/A   Unknown
4:55 AM 32.0 °F 25.6 °F 28.4 °F 87% 30.29 in 10.0 mi NNW 6.9 mph - N/A   Unknown
5:15 AM 32.0 °F 26.4 °F 28.4 °F 87% 30.29 in 10.0 mi North 5.8 mph - N/A   Unknown
5:35 AM 32.0 °F 24.8 °F 30.2 °F 93% 30.30 in 10.0 mi North 8.1 mph - N/A   Unknown
2:55 PM 42.8 °F 39.3 °F 30.2 °F 61% 30.24 in 10.0 mi West 5.8 mph - N/A   Clear
10:35 PM 26.6 °F - 24.8 °F 93% 30.31 in 7.0 mi Calm Calm - N/A   Unknown
10:55 PM 30.2 °F 21.9 °F 30.2 °F 100% 30.31 in 10.0 mi North 9.2 mph - N/A   Unknown
11:15 PM 32.0 °F 24.8 °F 28.4 °F 87% 30.32 in 10.0 mi North 8.1 mph - N/A   Unknown
11:35 PM 32.0 °F 24.8 °F 28.4 °F 87% 30.32 in 10.0 mi North 8.1 mph - N/A   Unknown
11:55 PM 32.0 °F 24.8 °F 28.4 °F 87% 30.32 in 10.0 mi North 8.1 mph - N/A   Unknown